User: anonymous   Login
Location: Unspecified
(0.0000°N, 0.0000°E)
Time: 05:19:41
(UTC+00:00)
Language:

DICE 1 - Orbit

View from above orbital plane
View from above orbital plane
View from above satellite
View from above satellite

Ground track
Ground track

The orbit data is extracted from the following two-line orbital elements,

1 37851U 11061B   19083.50907235  .00000919  00000-0  55676-4 0  9997
2 37851 101.7474 289.0473 0183015 353.5611   6.3249 15.03159244403437
Epoch (UTC): 24 March 2019 12:13:03
Eccentricity: 0.0183015
inclination: 101.7474°
perigee height: 430 km
apogee height: 684 km
right ascension of ascending node: 289.0473°
argument of perigee: 353.5611°
revolutions per day: 15.03159244
mean anomaly at epoch: 6.3249°
orbit number at epoch: 40343

The dashed part of the orbit path shows where the satellite is in the earth's shadow,  

DLR